This is the latest recevied weather packets stored in our database for station/object SQ5AAG-2. If no packets are shown the sender has not sent any weather packets the latest 10 day(s).
| Time | Temp. | Humidity | Pressure | Rain* | Wind** | Luminosity | Snow |
|---|---|---|---|---|---|---|---|
| 1777530380 | 4.44° C | 57% | 1016.4 hPa | 0 mm | - | - | - |
| 1777530079 | 4.44° C | 56% | 1016.5 hPa | 0 mm | - | - | - |
| 1777529779 | 5.56° C | 52% | 1016.6 hPa | 0 mm | - | - | - |
| 1777529479 | 6.67° C | 51% | 1016.5 hPa | 0 mm | - | - | - |
| 1777529178 | 7.22° C | 51% | 1016.4 hPa | 0 mm | - | - | - |
| 1777528878 | 8.33° C | 52% | 1016.4 hPa | 0 mm | - | - | - |
| 1777528578 | 7.78° C | 54% | 1016.4 hPa | 0 mm | - | - | - |
| 1777528278 | 7.22° C | 54% | 1016.4 hPa | 0 mm | - | - | - |
| 1777527977 | 6.67° C | 55% | 1016.4 hPa | 0 mm | - | - | - |
| 1777527677 | 6.11° C | 55% | 1016.3 hPa | 0 mm | - | - | - |
| 1777527377 | 6.11° C | 54% | 1016.6 hPa | 0 mm | - | - | - |
| 1777527076 | 6.11° C | 55% | 1016.4 hPa | 0 mm | - | - | - |
| 1777526776 | 5.56° C | 56% | 1016.4 hPa | 0 mm | - | - | - |
| 1777526476 | 5° C | 57% | 1016.5 hPa | 0 mm | - | - | - |
| 1777526175 | 5° C | 57% | 1016.5 hPa | 0 mm | - | - | - |
| 1777525875 | 5° C | 58% | 1016.4 hPa | 0 mm | - | - | - |
| 1777525575 | 4.44° C | 59% | 1016.4 hPa | 0 mm | - | - | - |
| 1777525275 | 4.44° C | 60% | 1016.5 hPa | 0 mm | - | - | - |
| 1777524974 | 3.89° C | 62% | 1016.1 hPa | 0 mm | - | - | - |
| 1777524674 | 3.33° C | 62% | 1016.4 hPa | 0 mm | - | - | - |
| 1777524374 | 3.33° C | 63% | 1016.4 hPa | 0 mm | - | - | - |
| 1777524073 | 2.78° C | 63% | 1016.4 hPa | 0 mm | - | - | - |
| 1777523773 | 2.22° C | 64% | 1016.4 hPa | 0 mm | - | - | - |
| 1777523473 | 2.22° C | 65% | 1016.5 hPa | 0 mm | - | - | - |
| 1777523173 | 1.67° C | 66% | 1016.3 hPa | 0 mm | - | - | - |
* Rain latest hour (hover to see other rain measurements)
** Current wind speed in m/s (hover to see current wind gust speed)